Location: ????
(32.1228°N, 34.8377°E)
Time: 00:34:39
(UTC+00:00)

Meteor 1-27 Rocket - Pass Details

Date: 21 September 2020
Orbit: 830 x 910 km, 81.3° (Epoch: 21 October)

Event Time Altitude Azimuth Distance (km) Brightness Sun altitude
Exits shadow 01:41:17 - 183° (S) 2,972 6.3 -23.2°
Reaches altitude 10° 01:42:18 10° 183° (S) 2,581 6.0 -23.0°
Maximum altitude 01:48:13 81° 96° (E) 923 3.9 -21.8°
Drops below altitude 10° 01:54:09 10° 10° (N) 2,593 6.5 -20.6°
Sets 01:56:37 0° 10° (N) 3,532 7.2 -20.1°
